Погода в Чечен-Ауле

Россия / Чеченская Республика     43°12′00″N   45°47′14″E
темп.,
°C
ветер,
м/с
пор.,
м/с
влажн.,
%
обл.,
%
осадки,
мм/ч
давл.,
гПа
погр.,
м
9 мая, вс
вс900:00+14в00794 0.0 101129
03:00+13в118096 0.0 100929
06:00+14ююз007574 0.0 100852
09:00+20сз225546 0.0 1008629
12:00+24сз33496 0.0 10061400
15:00+23сз5553100 0.1 10061462
18:00+12з91588100 2.1 10141009
21:00+8з71288100 3.9 10201113
10 мая, пн
пн1000:00+7з61190100 1.9 10221129
03:00+8зюз61182100 2.2 10221066
06:00+8з5976100 0.4 1021851
09:00+10юз466692 0.9 10221061
12:00+13з464889 0.2 10211626
15:00+14сз3443100 0.2 10191786
18:00+12ююз5663100 0.0 1020422
21:00+9зюз247096 0.0 1021214
11 мая, вт
вт1100:00+8юз137297 0.0 1020146
03:00+7ююз117722 0.0 101924
06:00+8юв12725 0.0 1019162
09:00+13всв455383 0.0 10171194
12:00+17св334362 0.0 10161566
15:00+19всв533961 0.0 10151887
18:00+15всв575423 0.0 1017732
21:00+10в25738 0.0 1018238
12 мая, ср
ср1200:00+9в017984 0.0 101896
03:00+8ю0183100 0.0 101746
06:00+9юз11791 0.0 1018166
09:00+15всв22580 0.0 1017795
12:00+19всв33493 0.0 10161287
15:00+21всв334613 0.0 10161472
18:00+19в44570 0.0 1016562
21:00+13в24745 0.0 1017126
13 мая, чт
чт1300:00+12вюв11785 0.0 101722
03:00+12ю00826 0.0 101612
06:00+13юв00784 0.0 1017104
09:00+19св22580 0.0 1016574
12:00+23всв44485 0.0 1015968
15:00+25всв44464 0.0 10141163
18:00+21всв45607 0.0 1015541
21:00+16в1175100 0.0 101647